Vertical_Velocity
-1 -1 -1 -0 -0 -0 -1 -1 -1 -0 -0 -1 -0 -0 -0 -0 -0 -0 -0 -0 -0 0 -0 -0 -1 -1 -1 -1 -1 -1 -1 -1 -1 -1 -1 -1 -1 -1 -1 -2 -2 -2 -2 -1 -0 -0 0 0 0 0 0 0 0 0 0 -1 -1 -1 -1 -1 -1 -1 -0 -0 1 1 0 -0 -1 -2 -2 -1 -1 -1 -1 -1 -1 -0 -0 -0 -0 -1 -1 -1 -0 0 0 -0 -1 -1 -1 -1 -2 -2 -1 1 1 -0 -2 -2 -1 -0 0
-1 -1 -1 -0 -0 -0 -1 -1 -1 -0 -0 -0 -1 -0 -0 -0 -0 -0 -0 -0 -0 -0 -0 -0 -1 -1 -2 -1 -1 -1 -1 -1 -1 -1 -2 -2 -1 -2 -2 -3 -2 -2 -1 -1 -1 -1 -0 -0 -0 -0 -0 -0 -0 0 1 0 -0 -1 -1 -1 -1 -1 -1 -1 0 1 -0 -1 -1 -1 -1 -1 -1 -1 -1 -0 -0 0 0 -0 -1 -1 -2 -1 -0 0 0 -1 -1 -1 -2 -2 -2 -2 -2 -1 1 1 -1 -2 -2 -1 -0
-0 -0 -0 -0 -0 -1 -1 -1 -1 -0 -0 -0 -1 -1 -0 -0 -0 -1 -1 -0 -0 -0 -0 -0 -1 -1 -1 -1 -1 -1 -1 -1 -2 -2 -2 -2 -2 -2 -2 -3 -3 -2 -1 -1 -1 -0 -0 -0 -0 -1 -0 -0 -0 0 1 1 1 1 0 -0 -1 -1 -1 -1 -1 -1 -2 -2 -2 -2 -1 -1 -1 -1 -1 0 0 0 0 -0 -1 -1 -1 -1 0 1 1 -1 -1 -1 -1 -1 -1 -1 -3 -3 -1 0 0 -1 -2 -2 -1
-0 -0 -0 -0 -0 -0 -1 -1 -1 -0 -0 -0 -1 -1 -1 -0 -0 -0 -0 -0 -0 -0 -0 -0 -1 -1 -1 -1 -1 -1 -1 -1 -1 -2 -2 -2 -2 -2 -2 -3 -3 -2 -1 -1 -1 -0 -0 -1 -1 -1 -1 -0 -0 0 0 1 1 1 1 1 -0 -0 -1 -1 -1 -2 -3 -3 -2 -2 -1 -1 -1 -0 0 0 0 0 0 0 -0 -0 -1 -1 -0 1 0 -1 -1 -1 0 -0 -0 -1 -2 -3 -2 -1 -1 -1 -1 -2 -2
-0 -0 -0 -0 -0 -1 -1 -1 -1 -1 -0 -1 -1 -1 -1 -1 -0 -0 -0 -0 -0 -0 -0 -0 -0 -1 -1 -1 -1 -1 -1 -1 -1 -2 -2 -2 -2 -2 -1 -2 -2 -2 -1 -1 -1 -0 -0 -1 -1 -1 -1 -1 -1 -0 -0 -0 -0 0 0 0 0 0 0 -0 -1 -2 -2 -2 -2 -2 -1 -1 -0 -0 -0 -0 -0 -0 0 0 0 -0 -0 -1 -1 -0 -0 -1 -1 -0 1 0 -0 -1 -2 -2 -2 -2 -1 -1 -1 -1 -2
-0 -0 -0 -0 -0 -1 -1 -1 -1 -1 -1 -1 -1 -1 -1 -1 -0 -0 -0 -0 -0 -0 -0 -0 -0 -0 -0 -0 -0 -1 -1 -1 -1 -1 -1 -2 -2 -1 -1 -1 -1 -1 -1 -1 -0 -0 -0 -0 -1 -1 -1 -1 -1 -1 -0 -0 -0 -0 -0 -0 -0 0 1 0 -0 -0 -1 -1 -1 -1 -1 -1 -1 -1 -1 -1 -1 -0 -0 -0 -0 -0 -1 -1 -1 -1 -1 -0 -0 -0 -0 -0 -1 -2 -2 -2 -1 -1 -2 -1 -1 -1 -2
-0 -0 -0 -0 -0 -1 -1 -1 -1 -1 -1 -1 -1 -0 -0 -0 -0 -0 -0 -0 -0 -0 -0 -0 -0 -0 -0 -0 -0 -0 -0 -0 -1 -1 -1 -1 -1 -1 -0 -1 -1 -1 -1 -1 -0 -0 -0 -0 -0 -0 -1 -1 -1 -1 -0 -0 0 0 1 1 1 1 1 1 1 1 1 0 0 -0 -0 -0 -1 -1 -1 -1 -1 -1 -0 -1 -1 -1 -1 -1 -1 -1 -1 -1 -0 -0 -1 -1 -1 -2 -2 -2 -2 -2 -1 -2 -1 -1 -1
-0 -0 -0 -0 -0 -0 -0 -1 -1 -1 -1 -1 -1 -1 -0 -0 -0 -0 -0 -0 -0 -0 0 0 -0 -0 -0 -0 -0 -0 -1 -1 -1 -1 -1 -1 -1 -1 -1 -0 -0 -0 -1 -1 -1 -0 -0 -0 -0 -0 -0 -0 -0 -0 -0 -0 -0 0 1 1 2 2 1 1 1 1 1 1 1 1 1 0 0 -0 -0 -0 -1 -1 -1 -1 -1 -0 -0 -0 -1 -1 -1 -1 -1 -1 -1 -1 -1 -1 -1 -2 -2 -2 -1 -1 -1 -1 -1
-0 -0 -0 -0 -0 -0 -0 -1 -1 -1 -1 -1 -1 -1 -1 -0 -0 -0 -0 -0 -0 -0 0 0 -0 -0 -0 -0 -0 -0 -1 -1 -1 -1 -1 -1 -1 -1 -1 -1 -0 -0 -0 -1 -1 -1 -1 -1 -0 -0 -0 -0 -0 -0 -0 -0 -0 -0 0 1 1 1 1 1 1 1 1 1 1 1 0 0 -0 -0 -0 -0 -0 0 -0 -0 -0 -0 -0 0 0 -0 -0 -1 -1 -1 -1 -1 -1 -1 -1 -1 -1 -1 -0 -0 -0 -1 -1
-0 -0 -0 -0 -0 -0 -0 -1 -1 -1 -1 -0 -0 -1 -1 -1 -0 -0 -0 -0 -0 -0 -0 -0 -0 -0 -0 -0 -0 -0 -0 -0 -1 -1 -1 -1 -1 -1 -1 -1 -1 -1 -1 -1 -1 -1 -1 -1 -1 -0 -0 -0 -0 -0 -1 -0 -0 -0 -0 -0 0 0 0 0 0 0 0 -0 -0 -0 -0 -0 -0 -0 -1 -0 -0 0 -0 -0 -0 -0 -0 0 1 1 0 0 -0 -0 -1 -1 -1 -0 -0 -1 -1 -0 0 1 1 0 -0
-0 -0 -0 -0 -0 -0 -0 -0 -0 -0 -0 -0 -0 -1 -1 -1 -0 -0 -0 -0 -0 -0 -0 -0 -0 -0 -0 -0 -0 -0 -0 -1 -1 -1 -1 -1 -1 -1 -1 -1 -1 -1 -1 -1 -1 -1 -1 -1 -1 -1 -1 -1 -1 -1 -1 -1 -0 -0 -1 -1 -1 -1 -1 -0 -0 -0 -0 -0 -0 -0 -0 -0 -0 -0 -0 -0 0 0 0 0 -0 -0 -0 -0 0 1 1 0 0 0 0 -0 -0 -0 -0 -0 -1 -1 -0 1 1 1 -0
-0 -0 -0 -0 -0 -0 -0 -0 -0 -0 -0 -0 -0 -0 -1 -1 -1 -0 -0 -0 -0 -0 -0 -0 -0 -0 -0 -0 -0 -0 -0 -0 -1 -1 -1 -1 -1 -1 -1 -1 -1 -1 -1 -1 -1 -1 -1 -1 -1 -1 -1 -1 -0 -0 -0 -0 -0 -0 -1 -1 -1 -1 -1 -1 -1 -0 -0 -0 -0 -0 -0 -0 -0 -0 0 0 0 0 0 0 -0 -0 -1 -0 -0 0 0 0 0 1 1 0 0 0 -0 -0 -1 -1 -1 -0 1 1 1
-0 -0 -0 -0 -0 -0 -0 -0 -0 -0 -0 -0 -0 -0 -1 -1 -1 -0 -0 -0 -0 -0 -0 -0 -0 -0 -0 -0 -0 -0 -0 -0 -1 -1 -1 -1 -1 -1 -1 -1 -1 -1 -1 -1 -1 -1 -1 -1 -1 -1 -0 -0 -0 -0 -0 -0 -0 -0 -0 -1 -1 -1 -1 -1 -1 -0 -0 -0 -0 -0 0 0 0 0 0 0 0 0 -0 0 0 -0 -0 -0 -0 -1 -1 -0 0 0 0 0 0 0 -0 -0 -0 -0 -0 -0 0 1 1
-0 -0 -0 -0 -1 -1 -1 -0 -0 -0 -0 -0 -0 -0 -0 -0 -0 -0 -0 -0 -0 -0 -0 -0 -0 -0 -0 -0 -0 -0 -0 -1 -1 -1 -1 -1 -1 -1 -1 -1 -1 -1 -1 -1 -1 -1 -1 -1 -1 -0 0 0 0 -0 -0 -0 0 0 -0 -0 -1 -1 -1 -1 -0 -0 -0 -0 0 0 0 0 0 0 0 0 0 -0 -0 -0 0 -0 -0 -1 -1 -1 -1 -0 -0 -0 -0 -0 -0 -0 -0 -0 -0 -0 -0 -0 0 1 1
-0 -0 -0 -1 -1 -1 -0 -0 -0 -0 -0 -0 -0 -0 -0 -0 -0 -0 -0 -0 -0 -0 -0 -0 -0 -0 -0 -0 -0 -0 -0 -1 -1 -1 -1 -1 -1 -1 -1 -1 -1 -1 -1 -1 -1 -1 -1 -1 -0 0 0 0 0 -0 -0 0 0 0 -0 -0 -1 -1 -1 -1 -0 -0 -0 -0 0 0 0 0 -0 -0 -0 -0 -0 -0 -0 -0 -0 -0 -0 -0 -0 -0 -0 -1 -1 -1 -0 -0 -0 -0 -0 -0 -0 -0 -0 -0 -0 0 1
-0 -0 -0 -1 -1 -1 -0 -0 -0 -0 -0 -0 -0 -0 -0 -0 -0 -0 -0 -0 -0 -0 -0 -0 -0 -0 -0 -0 -0 -0 -1 -1 -1 -1 -1 -1 -1 -0 -1 -1 -1 -1 -1 -1 -1 -1 -1 -0 0 0 0 0 0 -0 -0 -0 0 0 -0 -0 -1 -1 -1 -1 -0 -0 -0 -0 -0 -0 -0 -0 -0 -0 -0 -0 -0 -0 -0 -0 -0 -0 -0 -0 -0 -0 -0 -1 -1 -1 -1 -1 -1 -1 -1 -0 -0 -0 -1 -1 -1 -0 0
-1 -0 -0 -0 -1 -1 -0 -0 -0 -0 -0 -0 -0 -1 -1 -0 -0 -0 -0 -0 -0 -0 -0 -0 -0 -0 -0 -0 -1 -1 -1 -1 -1 -1 -1 -0 -0 0 0 -0 -0 -0 -0 -0 -0 -0 0 0 0 -0 -0 -0 -0 -0 -0 0 0 0 -0 -0 -1 -1 -1 -1 -1 -1 -1 -0 -1 -1 -1 -1 -1 -1 -1 -1 -0 -0 -0 -0 0 0 1 0 0 0 0 -0 -0 -0 -1 -1 -1 -1 -2 -0 0 -0 -1 -1 -1 -1 -0
-1 -1 -0 -0 -1 -1 -1 -0 -0 -0 -0 -1 -1 -1 -1 -0 -0 -0 -0 -0 -0 -0 -0 -0 -0 -0 -0 -1 -1 -1 -1 -1 -1 -0 -0 -0 -0 -1 -0 -0 -0 -0 -0 -0 0 0 0 -0 -0 -1 -1 -1 -1 -0 -0 0 1 1 0 -0 -1 -1 -1 -1 -1 -1 -1 -1 -1 -1 -1 -1 -1 -1 -1 -1 -0 -0 -0 -0 0 0 0 1 1 1 1 1 0 -0 -0 -0 -0 -0 -1 0 0 0 0 0 -0 -1 -1
-2 -1 -1 -1 -1 -1 -1 -0 -0 -0 -0 -1 -1 -1 -1 -1 -0 -0 -0 -0 -0 -0 -0 -0 -0 -0 -0 -1 -1 -1 -1 -1 -0 -0 -0 -1 -1 -2 -2 -1 -1 -1 -1 -1 -1 -1 -1 -1 -2 -2 -2 -1 -1 -1 -1 -0 0 1 1 0 -0 -0 -1 -1 -1 -1 -1 -1 -1 -1 -1 -1 -1 -1 -1 -1 -0 -0 -0 -0 -0 -0 -0 0 1 1 1 1 1 1 1 0 0 0 0 0 1 1 1 1 1 1 -0
-1 -1 -1 -0 -0 -0 -0 0 0 0 -0 -0 -1 -1 -1 -0 -0 -0 -0 -0 -0 -0 -0 -0 -0 -0 -0 -0 -0 -0 -0 -0 -0 -1 -1 -1 -2 -2 -2 -2 -2 -2 -2 -2 -2 -2 -2 -2 -2 -2 -2 -2 -1 -1 -1 -1 -1 -0 -0 0 0 0 -0 -1 -1 -1 -1 -1 -1 -1 -1 -1 -1 -1 -1 -1 -1 -0 -0 -0 -0 -0 -1 -0 -0 0 0 1 1 1 1 1 0 0 0 0 1 1 1 0 1 1 1
-1 -1 -1 -1 -0 -0 -0 0 0 0 0 0 -0 -1 -1 -0 0 0 0 -0 -0 -0 -0 0 0 1 1 1 0 0 -0 -1 -1 -1 -1 -2 -2 -2 -1 -1 -1 -2 -2 -2 -2 -2 -2 -2 -2 -2 -2 -2 -1 -1 -1 -1 -1 -1 -1 -1 -0 -0 -0 -0 -0 -1 -1 -1 -1 -1 -1 -1 -1 -1 -1 -1 -1 -1 -1 -1 -1 -1 -1 -1 -0 -0 -0 -0 -0 0 0 0 0 0 0 0 0 1 1 0 0 1 2
-1 -1 -1 -1 -1 -1 -1 -1 -1 -1 -1 -0 -0 -0 -0 -0 0 1 0 0 -0 0 0 1 1 1 1 1 0 -0 -1 -1 -1 -1 -1 -1 -1 -1 -1 -1 -1 -1 -1 -1 -1 -1 -1 -1 -1 -1 -1 -1 -1 -1 -1 -1 -1 -1 -1 -1 -1 -0 -0 -0 -0 -0 -1 -1 -1 -1 -1 -1 -1 -1 -0 -1 -1 -1 -1 -1 -1 -1 -1 -1 -1 -1 -0 -1 -1 -1 -0 -0 -0 -0 0 -0 -0 -0 0 1 1 1 1
-1 -1 -1 -1 -1 -1 -1 -2 -2 -2 -1 -1 -0 -0 -0 -0 0 0 0 0 0 0 1 1 1 1 0 -0 -0 -1 -1 -1 -1 -1 -0 -0 -0 -0 -0 -0 -0 -0 -0 -0 -0 -0 0 0 -0 -1 -1 -1 -1 -1 -1 -1 -1 -1 -0 -0 -0 -0 -0 -0 -0 -0 -0 -1 -1 -1 -1 -1 -1 -1 -1 -1 -1 -1 -1 -1 -1 -1 -1 -1 -0 -1 -1 -1 -1 -1 -1 -1 -1 -1 -1 -1 -1 -1 -1 -0 0 1 1
-1 -1 -1 -1 -1 -1 -1 -1 -2 -2 -1 -1 -1 -0 -0 -0 -0 -0 0 0 0 0 0 0 0 0 0 -0 -0 -0 -1 -0 -1 -1 -1 -0 -0 0 1 1 0 0 -0 -0 -0 0 1 1 0 -0 -1 -1 -1 -1 -0 -0 -1 -1 -1 -0 -0 -0 -0 -0 -0 -0 -0 -0 -0 -0 -1 -1 -0 -0 -0 -1 -1 -1 -0 -1 -0 -0 -1 -1 -1 -1 -2 -2 -1 -1 -0 -0 -0 -0 -1 -1 -1 -1 -2 -1 -1 -0 1
-1 -1 -1 -1 -1 -1 -1 -1 -1 -1 -1 -1 -1 -0 -0 -0 -0 -0 -0 -0 0 0 0 0 0 -0 -0 0 0 0 0 -0 -0 -0 -1 -1 -1 -0 0 0 0 -0 -1 -1 -1 -0 -0 -0 -0 -1 -1 -1 -1 -1 -1 -1 -1 -1 -1 -1 -1 -0 -0 -0 -0 -0 -0 -0 -0 -0 -0 -0 -0 -0 -0 -0 -1 -1 -1 -0 -0 -1 -1 -1 -1 -1 -1 -1 -2 -2 -0 -1 -0 0 0 -0 -0 -1 -2 -2 -2 -2 -1
-1 -1 -1 -1 -1 -1 -1 -1 -1 -1 -1 -1 -1 -0 -0 -0 -0 -0 -0 -0 0 0 0 0 -0 -0 -0 0 0 1 0 -0 -0 -1 -2 -2 -2 -1 -1 -0 -0 -0 -1 -1 -1 -1 -1 -0 -0 -1 -1 -1 -1 -1 -1 -1 -1 -1 -1 -1 -1 -1 -0 -0 -0 -0 -0 -0 -0 -0 -0 -0 -0 -0 -0 -0 -1 -1 -1 -1 -0 -0 -1 -1 -1 -1 -1 -1 -1 -1 -0 -1 -1 -1 0 1 1 0 -1 -1 -2 -2 -2
-1 -1 -1 -1 -1 -1 -1 -1 -1 -1 -1 -1 -1 -1 -0 -0 -0 -0 -0 0 0 0 0 -0 -0 -0 -0 0 0 0 0 -0 -1 -2 -3 -3 -3 -3 -2 -1 -1 -1 -1 -1 -1 -1 -1 -0 -0 -0 -0 -1 -1 -1 -1 -1 -1 -1 -1 -1 -0 -0 -0 -0 -0 -0 -0 -0 -0 -0 -0 -0 -0 -0 -0 -0 -0 -0 -0 -1 -1 -1 -1 -1 -1 -1 -1 -1 -1 -1 -1 -1 -1 -1 -0 -0 0 1 1 0 -1 -1 -2
-1 -1 -1 -1 -1 -1 -1 -1 -1 -1 -1 -1 -1 -1 -1 -0 0 0 0 0 0 0 -0 -0 -0 -0 -0 0 0 -0 -0 -1 -1 -2 -3 -3 -3 -3 -2 -2 -1 -1 -1 -1 -1 -1 -0 -0 0 0 0 -0 -0 -0 -0 0 0 0 0 0 0 0 0 -0 -0 -0 -0 -0 -0 -0 -0 -0 -0 -0 -0 -0 -0 -0 -0 -0 -0 -0 -0 -0 -0 -0 -0 -0 -0 -0 -1 -1 -1 -1 -0 -0 0 0 0 1 0 -0 -1
-1 -1 -1 -1 -1 -1 -1 -1 -1 -1 -1 -1 -0 -0 -0 -0 -0 0 0 -0 -0 -0 -0 -0 -0 -0 -0 -0 -0 -0 -1 -1 -2 -2 -3 -3 -3 -2 -2 -1 -1 -1 -1 -1 -1 -1 -0 -0 -0 0 0 -0 -0 -0 -0 0 1 1 1 1 0 0 -0 -0 -0 -0 -0 -0 -0 -0 -0 -0 -0 -0 0 0 0 0 -0 -0 -0 -0 -0 -0 -0 -0 -0 -0 -0 -0 -0 0 0 -0 -0 -0 -1 -1 -0 0 1 1 0
-1 -1 -1 -1 -1 -1 -1 -1 -1 -1 -1 -1 -1 -0 -0 -0 -1 -1 -0 -0 -0 -0 -0 -0 -0 -0 -0 -1 -1 -1 -2 -2 -3 -3 -3 -3 -2 -2 -1 -1 -1 -1 -1 -1 -1 -1 -1 -0 -0 -0 -1 -1 -1 -1 -1 -0 -0 0 0 -0 -0 -0 -0 -0 -0 -0 -0 -0 -0 -1 -1 -1 -0 -0 -0 0 0 0 0 0 0 0 0 0 -0 -0 -0 -0 -0 0 0 0 0 0 0 0 0 -0 0 0 0 1 1
-1 -1 -1 -1 -1 -1 -1 -1 -1 -1 -1 -1 -1 -0 -0 -0 -1 -1 -1 -1 -1 -0 -0 0 -0 -0 -1 -1 -1 -1 -2 -3 -3 -4 -3 -2 -1 -1 -0 -0 -0 -1 -1 -1 -1 -1 -1 -1 -1 -1 -1 -1 -1 -1 -1 -1 -0 -0 -0 -1 -1 -1 -1 -1 -1 -1 -1 -1 -1 -1 -1 -1 -1 -1 -0 -0 0 0 1 1 1 1 0 0 0 0 -0 -0 -0 -0 0 0 0 0 -0 -0 0 1 0 -0 -0 -0 0
-1 -1 -1 -1 -1 -1 -1 -1 -1 -1 -2 -1 -1 -1 -0 -1 -1 -1 -1 -1 -0 -0 -0 -0 -1 -1 -1 -1 -1 -1 -1 -2 -3 -3 -2 -2 -1 -0 0 -0 -0 -1 -1 -1 -1 -2 -2 -2 -2 -2 -2 -2 -1 -1 -1 -1 -1 -1 -1 -1 -1 -1 -1 -1 -1 -1 -1 -1 -1 -1 -1 -1 -1 -1 -0 -0 0 0 1 1 1 1 1 1 1 1 -0 -0 -0 -0 -0 0 -0 -1 -1 -1 -1 -1 -0 -0 -0 -0 -0
-1 -1 -1 -1 -1 -1 -0 -0 -0 -1 -2 -2 -1 -1 -0 -1 -1 -1 -1 -1 -0 -0 -1 -1 -2 -2 -2 -2 -1 -1 -1 -2 -2 -2 -2 -1 -1 -0 -0 -0 -1 -1 -1 -1 -2 -2 -2 -2 -2 -2 -2 -2 -2 -2 -2 -2 -2 -1 -1 -1 -1 -1 -1 -1 -1 -1 -1 -0 -0 -0 0 0 0 -0 -0 -0 -0 0 0 0 0 1 1 1 1 1 0 -0 -0 -1 -1 -0 0 0 -0 -1 -1 -1 -0 0 0 0 0
-1 -1 -1 -1 -1 -1 -0 -0 -0 -1 -2 -2 -1 -1 -0 -1 -1 -1 -1 -1 -0 -0 -1 -2 -2 -2 -2 -2 -1 -1 -1 -2 -2 -2 -2 -2 -1 -1 -0 -0 -1 -1 -1 -1 -1 -1 -1 -1 -1 -1 -1 -1 -2 -2 -2 -2 -2 -2 -1 -1 -1 -1 -1 -1 -1 -0 -0 0 1 1 1 1 1 1 1 1 0 0 0 -0 0 0 1 1 1 1 1 0 -0 -1 -1 -1 -0 0 1 -0 -1 -1 -0 -0 -0 -0 0
-1 -1 -1 -1 -1 -1 -1 -0 -1 -1 -1 -1 -1 -1 -1 -1 -1 -1 -1 -1 -0 -1 -1 -2 -2 -2 -1 -2 -2 -2 -1 -2 -2 -2 -2 -2 -1 -1 -0 -0 -0 -1 -1 -1 -1 -1 -1 -1 -1 -1 -1 -1 -1 -2 -2 -1 -1 -1 -1 -1 -1 -1 -1 -0 -0 -0 0 0 1 1 1 2 2 2 1 1 1 0 0 -0 -0 -0 0 0 0 0 0 0 -0 -1 -1 -0 -0 -0 -0 -0 -0 -0 -1 -1 -1 -0 -0
-1 -1 -1 -1 -1 -1 -1 -0 -0 -1 -1 -0 -1 -1 -1 -1 -1 -1 -1 -1 -1 -1 -1 -1 -2 -2 -2 -2 -2 -2 -2 -2 -2 -2 -2 -1 -1 -0 -0 -0 -0 -0 -1 -1 -1 -1 -1 -1 -0 -0 -1 -1 -1 -1 -1 -1 -1 -1 -1 -1 -1 -0 -0 -0 -0 -0 -0 -0 -0 -0 -0 0 0 1 1 1 1 1 0 0 0 -0 -0 -0 0 0 0 0 0 -0 0 -0 -0 -0 -0 0 0 0 -1 -1 -1 -0 -0
-1 -1 -1 -1 -1 -1 -1 -0 -0 -0 -0 -0 -1 -1 -1 -1 -1 -1 -1 -1 -1 -1 -1 -1 -1 -1 -1 -2 -2 -2 -2 -2 -2 -1 -1 -1 -1 -0 0 0 0 -0 -1 -1 -1 -1 -0 -0 -0 -0 -1 -1 -1 -1 -1 -1 -1 -1 -1 -0 -0 -0 -0 -0 -0 -0 -0 -0 -0 -0 -1 -1 -0 -0 -0 0 0 1 1 1 1 0 0 0 0 0 0 0 0 0 -0 0 -0 -0 -0 0 1 1 1 -0 -0 -0 -0
-1 -1 -0 -1 -0 -0 -0 -0 0 0 -0 -1 -1 -2 -1 -1 -1 -1 -1 -1 -1 -1 -2 -1 -1 -1 -1 -1 -2 -2 -2 -2 -2 -2 -1 -1 -0 -0 0 0 0 -0 -0 -0 -0 -0 -0 -0 -0 -0 -1 -1 -1 -0 -0 -0 -0 -0 -0 -0 -0 -0 -0 -0 -0 -0 -0 0 0 0 -0 -0 -0 -0 -0 0 0 0 1 1 1 1 1 1 0 0 0 0 0 0 -0 1 0 -0 0 0 0 1 1 1 1 0 -0
-1 -1 -0 -0 -0 -0 -0 0 0 -0 -1 -1 -2 -2 -1 -1 -1 -1 -1 -1 -1 -1 -2 -2 -1 -1 -1 -1 -2 -2 -1 -2 -2 -2 -2 -1 -1 -0 0 0 0 -0 -0 -0 -0 -0 -0 -0 -0 -0 -0 -0 -0 -0 -0 -0 -0 -0 0 0 0 -0 -0 -0 -0 -0 0 1 1 1 1 0 0 0 0 -0 -0 0 0 0 0 0 1 1 1 1 0 0 0 0 1 0 0 1 1 1 1 1 1 2 2 1 0
-1 -1 -0 -0 -0 -0 0 0 -0 -1 -1 -1 -2 -2 -1 -0 -0 -1 -1 -1 -1 -1 -2 -2 -2 -1 -1 -1 -1 -1 -1 -1 -2 -2 -2 -1 -1 -0 0 0 0 -0 -0 -0 -0 0 0 -0 -0 -0 -0 -0 -0 -0 -0 -0 0 0 1 1 1 0 0 0 0 0 0 1 1 1 1 0 0 -0 -0 -0 -0 -0 0 0 0 0 0 0 1 1 0 0 0 0 0 0 0 1 1 1 1 1 1 2 2 1 1
-1 -0 -0 -0 -0 -0 0 0 -0 -1 -1 -1 -2 -2 -1 -0 -0 -1 -1 -1 -1 -1 -1 -1 -2 -2 -1 -1 -1 -1 -1 -1 -2 -2 -2 -1 -1 -1 -0 0 0 -0 -0 -0 -0 0 0 -0 -0 -0 -0 -0 -0 -0 -0 0 1 1 2 1 1 1 0 0 0 0 0 1 1 0 0 -0 -0 -0 -0 -0 -0 0 0 0 0 0 0 0 0 0 0 0 -0 -0 -0 -0 0 0 0 1 1 1 1 1 1 2 2
-0 -0 -1 -0 -0 -0 -0 -0 -0 -1 -1 -2 -2 -2 -1 -0 -1 -1 -2 -2 -1 -1 -1 -1 -1 -2 -2 -1 -1 -1 -1 -1 -1 -1 -2 -1 -1 -1 -0 -0 -0 -0 -0 -0 -0 -0 -0 -0 -0 -0 -0 -0 -0 -0 0 1 2 2 2 2 1 1 0 0 0 0 0 -0 -0 -1 -1 -1 -1 -0 -0 -0 0 0 0 0 0 0 0 0 0 0 0 0 -0 -0 -0 -0 -0 -0 0 0 1 2 1 0 1 1 2
-0 -0 -1 -0 0 0 -0 -0 -1 -1 -1 -1 -1 -1 -0 -0 -1 -1 -2 -2 -2 -1 -1 -1 -1 -1 -1 -1 -1 -0 -1 -1 -1 -1 -1 -1 -1 -1 -0 -0 -0 -0 -0 -0 -0 -0 -0 -1 -1 -1 -1 -0 0 1 1 2 2 2 2 1 1 1 0 0 -0 -0 -1 -1 -1 -2 -1 -1 -1 -0 -0 0 0 0 -0 -0 -1 -1 -0 -0 -0 -0 -0 -0 -0 -1 -1 -1 -1 -1 -0 -0 0 1 1 -0 -0 1 1
-1 -1 -1 -0 -0 -0 -0 -1 -1 -1 -0 -0 -0 -0 -0 -1 -1 -1 -1 -1 -1 -1 -0 -0 -1 -1 -1 -1 -1 -1 -1 -1 -1 -0 -0 -1 -1 -1 -0 -0 -1 -1 -1 -1 -1 -1 -1 -1 -1 -1 -0 -0 1 1 2 2 2 2 1 1 0 0 -0 -0 -1 -1 -2 -2 -2 -2 -2 -2 -1 -1 -1 -1 -1 -1 -2 -2 -2 -2 -2 -2 -2 -1 -1 -1 -1 -1 -1 -1 -1 -1 -1 -1 -1 -0 -1 -1 -1 -0 0
-1 -1 -0 -0 -0 -0 -1 -1 -0 -0 0 -0 -1 -1 -1 -1 -1 -1 -1 -0 -1 -1 -1 -1 -0 -0 -1 -1 -1 -1 -1 -1 -1 -1 -1 -1 -2 -2 -1 -1 -1 -2 -1 -1 -1 -1 -1 -1 -1 -1 -0 1 1 2 2 1 1 1 1 0 -0 -0 -1 -1 -2 -2 -2 -3 -3 -3 -3 -3 -3 -3 -3 -3 -3 -3 -3 -4 -4 -4 -4 -4 -4 -4 -3 -2 -2 -2 -2 -2 -2 -2 -1 -1 -1 -1 -1 -1 -1 -1 -0
-1 -1 -0 -0 -0 -0 -1 -0 0 0 -0 -1 -1 -1 -1 -0 -0 -0 -0 -0 -0 -1 -1 -1 -1 -0 -0 -0 -1 -1 -0 -1 -1 -2 -1 -2 -2 -2 -2 -1 -2 -2 -2 -1 -1 -1 -1 -1 -1 -0 0 1 1 1 1 1 1 1 0 0 -0 -1 -1 -2 -2 -2 -2 -2 -2 -3 -3 -3 -3 -4 -4 -4 -4 -4 -4 -4 -4 -4 -4 -4 -4 -4 -4 -3 -3 -2 -2 -2 -2 -2 -1 -1 -0 -0 -1 -1 -1 -1 -1
-1 -1 -1 -1 -0 -0 0 0 0 0 -0 -0 -1 -1 -1 -0 -0 -0 -0 -1 -1 -1 -1 -1 -1 -1 -0 -0 -0 -0 -1 -1 -2 -2 -2 -2 -2 -2 -3 -2 -1 -1 -1 -1 -0 -1 -1 -1 -1 -0 0 1 1 1 1 0 0 -0 -0 -0 -1 -1 -2 -2 -2 -2 -1 -1 -2 -2 -2 -2 -2 -2 -3 -3 -4 -4 -3 -3 -2 -2 -1 -1 -2 -2 -2 -2 -2 -2 -2 -2 -2 -2 -1 -1 -0 -0 -0 -0 -0 -0 -1
-1 -1 -1 -1 -0 0 1 0 0 0 0 -0 -1 -1 -1 -1 -0 -0 -1 -1 -1 -1 -1 -1 -1 -1 -0 0 0 -0 -1 -1 -1 -1 -2 -2 -2 -1 -1 -1 -0 0 -0 -0 -0 -1 -1 -1 -1 -0 0 0 0 0 0 0 -0 -0 -1 -1 -1 -2 -2 -2 -2 -1 -1 -1 -1 -1 -1 -1 -1 -1 -1 -1 -1 -2 -1 -1 -0 0 1 1 1 1 1 0 -0 -1 -1 -1 -2 -2 -2 -2 -2 -2 -2 -1 -1 -1 -1
-1 -1 -0 0 0 0 1 0 0 -0 -0 -1 -1 -1 -1 -0 -0 -0 -0 -1 -1 -1 -1 -0 -1 -1 -1 -0 -0 -0 -1 -0 -0 -0 -0 -2 -3 -3 -1 0 1 1 -0 -1 -1 -1 -1 -1 -1 0 1 0 -0 -0 -0 0 -0 -0 -1 -2 -2 -2 -2 -2 -2 -1 -1 -1 -1 -1 -1 -0 1 1 2 1 0 0 1 1 2 2 2 3 3 2 2 2 1 1 -0 -0 -1 -1 -2 -2 -3 -3 -3 -2 -2 -1 -1
-0 -0 0 0 0 0 0 -0 -0 -0 -0 -1 -1 -1 -0 0 0 -0 -0 -0 -0 -0 -1 -0 -0 -0 -1 -1 -1 -0 -0 -0 -0 -0 -0 -1 -4 -6 -7 -4 -1 1 1 -1 -1 -1 -1 -1 -1 -1 -1 -1 -0 -0 0 -0 -0 -1 -2 -2 -2 -2 -2 -2 -1 -1 -0 -0 -1 -1 -0 1 3 4 4 2 1 2 3 3 3 3 3 2 2 2 2 2 2 2 1 1 1 -0 -0 -1 -1 -2 -2 -2 -2 -2 -2
-1 -0 -0 -0 0 0 0 -0 -0 -0 -0 -1 -1 -1 -0 -0 -0 -0 -0 -0 -0 -1 -1 -0 -0 -0 -0 -1 -1 -0 -0 0 0 -0 -2 -2 -3 -4 -5 -6 -4 -1 3 1 -1 -2 -2 -2 -2 -1 -1 -0 0 0 -0 -1 -1 -2 -2 -1 -1 -1 -1 -1 -1 -0 0 0 -0 -0 1 2 4 4 3 1 1 2 3 3 3 2 2 1 1 0 1 1 1 1 2 2 2 2 1 1 1 0 -0 -1 -1 -1 -2
-1 -0 -0 -0 -0 0 0 0 -0 -0 -0 -1 -1 -1 -0 -0 -0 -0 -0 -0 -1 -1 -0 -1 -0 -0 -0 -0 -0 -0 -0 0 1 0 -1 -3 -3 -2 -1 -3 -6 -8 -8 -2 -0 -0 -2 -3 -2 -1 2 1 1 0 -1 -1 -2 -2 -1 -1 -1 -1 -0 -0 -0 0 1 1 1 1 1 1 2 2 3 2 2 2 2 1 1 -0 -0 -1 -1 -1 -1 -1 -0 -0 0 1 2 2 2 2 2 1 1 0 -0 -1 -1
-1 -0 -0 -0 -0 0 1 1 0 -0 -1 -1 -1 -1 -1 -0 -0 -0 -0 -0 -0 -0 -0 -0 -0 -1 -1 -1 -1 -0 0 1 1 0 -1 -2 -3 -3 -3 -3 -3 -4 -5 -6 -2 2 4 -1 -1 2 6 2 0 -0 -1 -1 -1 -1 -0 -0 -1 -0 -0 0 1 1 2 2 1 1 -0 -0 1 3 4 2 1 1 1 -0 -1 -2 -2 -2 -2 -2 -2 -2 -1 -1 -1 -0 0 1 1 0 1 1 1 1 0 -0 -1
-1 -1 -0 -0 -0 0 1 0 -0 -0 -0 -1 -1 -1 -0 -0 -0 -0 -0 -0 -0 -0 -0 -0 -0 -0 -1 -0 -0 0 1 1 0 -0 -1 -2 -2 -2 -3 -2 -1 -1 -1 -2 -3 -4 -0 -5 -6 -3 3 0 -0 -0 -0 -0 0 0 -0 -1 -1 -1 -0 0 1 1 1 0 -0 -1 -1 -0 2 4 3 1 1 1 -0 -1 -1 -2 -2 -2 -2 -2 -2 -2 -2 -2 -2 -2 -1 -1 -1 -1 -1 -1 -0 0 0 -0 -0
-0 -0 -0 -0 0 0 0 0 -0 -0 -0 -0 -1 -1 -0 -0 -0 -0 -0 -0 -0 -0 -0 -0 -0 -0 -1 -0 0 1 1 0 -0 -0 -1 -1 -1 -0 1 -1 -4 -4 -1 -0 -0 -2 -6 -9 -8 -6 -2 -2 -1 -1 0 0 -0 -0 -1 -1 -1 -1 -0 -0 0 0 -0 -1 -1 -2 -1 0 2 3 1 0 0 1 -0 -0 -1 -1 -1 -2 -2 -2 -1 -1 -2 -2 -2 -2 -2 -2 -1 -2 -2 -2 -1 -0 0 0 -0
-0 -0 -0 -0 0 0 0 -0 -0 0 1 0 -0 -1 -1 -1 -0 -0 -0 -0 -0 0 0 -0 -0 -0 -0 -0 0 1 1 0 -0 -1 -1 -0 -0 0 1 1 -1 -2 -4 -3 -2 -2 -2 -6 -10 -11 -6 -3 -2 -3 -2 -0 -0 -1 -1 -1 -1 -1 -0 0 0 -0 -1 -2 -2 -2 -1 0 2 2 -1 -0 1 1 0 -0 -0 -1 -1 -1 -1 -2 -1 -2 -2 -2 -3 -2 -2 -2 -1 -2 -2 -3 -2 -0 1 1 1
-0 -0 0 -0 -0 -0 -0 -0 -0 0 1 0 -1 -1 -1 -1 -0 -0 0 0 0 0 0 -0 -0 -0 0 1 1 1 1 0 -0 -1 -1 -0 0 0 0 -0 0 1 1 0 -0 -1 -3 -2 -4 -7 -11 -4 -2 -2 -3 -1 -0 0 -0 -1 -1 -0 0 0 -0 -1 -2 -3 -3 -3 -2 1 2 1 -1 1 2 1 -0 -0 -0 -0 -1 -1 -1 -2 -2 -2 -2 -2 -2 -2 -2 -2 -1 -1 -2 -3 -4 -2 -0 1 2
0 0 0 -0 -0 -1 -1 -1 -0 0 0 -1 -1 -1 -1 -0 -0 -0 0 0 -0 -0 -0 -0 0 0 1 1 1 1 0 0 -0 -0 -0 -0 0 0 -0 -1 -1 -2 -1 -0 1 0 -2 -2 -1 -3 -10 -12 -6 0 0 -2 -2 -1 -1 -1 -0 -0 0 -0 -1 -2 -2 -3 -3 -3 -2 2 3 2 1 3 2 1 -0 -0 -0 -0 -1 -1 -1 -2 -1 -1 -1 -1 -1 -0 -1 -1 -1 -1 -2 -3 -4 -5 -4 -2 0
0 0 0 -0 -1 -1 -1 -1 -0 -0 -0 -1 -2 -1 -1 -0 0 0 0 -0 -0 -0 -0 -0 0 1 1 1 1 1 -0 -0 -0 -0 0 0 0 0 -0 -0 -1 -1 -1 -0 -0 -0 -0 -1 -1 -2 -3 -10 -12 -8 1 0 -1 -3 -3 -2 -1 0 -0 -1 -2 -2 -2 -2 -3 -2 -0 4 4 2 4 4 2 0 -0 0 -0 -1 -1 -2 -2 -2 -1 -1 -0 -0 0 1 0 -0 -0 0 -0 -1 -2 -3 -4 -4 -2
1 0 -0 -0 -1 -1 -2 -1 -0 0 -0 -2 -2 -2 -1 -0 0 0 0 -0 -0 -0 0 -0 0 1 2 1 1 1 -0 -0 -0 -0 0 1 0 0 0 0 0 1 0 0 -0 -0 -0 -0 -0 1 2 0 -6 -13 -12 -4 -0 0 -1 -2 -2 -1 -1 -2 -2 -2 -1 -2 -2 -1 2 5 4 4 5 3 1 -0 -0 0 -0 -1 -1 -2 -2 -2 -1 -1 -1 -0 -0 1 0 0 0 0 -0 -1 -1 -1 -2 -3 -4
1 0 -0 -1 -1 -1 -2 -1 0 1 -0 -2 -2 -2 -1 -0 -0 0 -0 -0 -0 0 0 -0 0 1 2 1 1 1 0 -0 -0 0 0 1 1 0 -0 -0 0 1 1 0 -0 -0 -1 -1 -0 1 4 3 0 -5 -12 -11 -7 -2 -0 0 -0 -0 -0 -1 -1 -1 -0 -1 -1 -0 3 5 5 4 4 1 -0 -0 -0 -0 -1 -1 -1 -1 -1 -1 -1 -1 -1 -1 -1 -0 -0 -1 -0 -1 -1 -2 -2 -2 -2 -2 -2
Height
1498 1498 1497 1497 1497 1497 1497 1497 1496 1496 1496 1496 1496 1495 1495 1495 1495 1495 1495 1494 1494 1494 1494 1494 1493 1493 1493 1493 1493 1493 1493 1493 1493 1493 1492 1492 1492 1492 1492 1492 1492 1491 1491 1491 1491 1490 1490 1490 1490 1490 1490 1490 1491 1491 1491 1492 1492 1492 1493 1493 1494 1494 1495 1495 1496 1496 1496 1495 1495 1495 1495 1495 1494 1494 1494 1494 1494 1495 1495 1495 1495 1496 1496 1496 1497 1497 1498 1498 1499 1499 1500 1500 1501 1502 1502 1503 1503 1503 1503 1504 1504 1505 1505
1497 1497 1497 1497 1497 1496 1496 1496 1496 1496 1496 1495 1495 1495 1495 1495 1494 1494 1494 1494 1494 1493 1493 1493 1493 1493 1492 1492 1492 1492 1492 1492 1492 1492 1492 1492 1492 1492 1491 1491 1491 1491 1491 1491 1490 1490 1490 1489 1489 1489 1489 1490 1490 1490 1491 1491 1491 1491 1491 1492 1492 1493 1493 1494 1494 1494 1494 1494 1493 1493 1493 1493 1493 1493 1493 1493 1493 1493 1493 1494 1494 1494 1494 1495 1495 1495 1496 1496 1497 1497 1498 1498 1499 1500 1500 1501 1501 1501 1502 1502 1502 1503 1503
1497 1497 1496 1496 1496 1496 1496 1496 1495 1495 1495 1495 1495 1495 1494 1494 1494 1494 1493 1493 1493 1493 1493 1493 1492 1492 1492 1492 1492 1491 1491 1491 1491 1491 1491 1491 1491 1491 1491 1490 1490 1491 1491 1490 1490 1490 1489 1489 1489 1489 1489 1489 1489 1490 1490 1490 1491 1491 1491 1491 1491 1492 1492 1493 1493 1492 1492 1492 1492 1491 1491 1492 1492 1492 1492 1492 1492 1492 1492 1492 1492 1492 1493 1493 1493 1494 1494 1494 1495 1495 1496 1497 1497 1498 1499 1499 1500 1500 1500 1500 1501 1501 1502
1496 1496 1496 1496 1496 1495 1495 1495 1495 1495 1495 1494 1494 1494 1494 1494 1493 1493 1493 1493 1493 1492 1492 1492 1492 1492 1491 1491 1491 1491 1491 1490 1490 1490 1490 1490 1490 1490 1490 1490 1490 1490 1490 1490 1490 1489 1489 1489 1489 1488 1488 1488 1488 1489 1489 1490 1490 1490 1490 1490 1491 1491 1491 1491 1491 1491 1491 1490 1490 1490 1490 1491 1491 1491 1491 1491 1490 1490 1490 1490 1490 1490 1491 1491 1491 1492 1492 1492 1493 1494 1494 1495 1495 1496 1497 1497 1498 1498 1499 1499 1499 1500 1500
1496 1496 1495 1495 1495 1495 1495 1495 1495 1494 1494 1494 1494 1493 1493 1493 1493 1493 1492 1492 1492 1492 1492 1492 1491 1491 1491 1491 1491 1490 1490 1490 1490 1490 1490 1490 1490 1490 1489 1489 1489 1489 1489 1489 1489 1489 1489 1488 1488 1488 1488 1488 1488 1488 1488 1488 1489 1489 1490 1490 1490 1490 1490 1490 1490 1490 1490 1490 1490 1490 1490 1490 1490 1490 1490 1489 1489 1489 1489 1489 1489 1489 1489 1489 1489 1490 1490 1491 1491 1492 1492 1493 1494 1494 1495 1495 1496 1496 1497 1497 1498 1498 1498
1495 1495 1495 1495 1495 1495 1494 1494 1494 1494 1494 1493 1493 1493 1493 1493 1492 1492 1492 1492 1492 1492 1492 1491 1491 1491 1491 1490 1490 1490 1490 1490 1490 1489 1489 1489 1489 1489 1489 1489 1489 1489 1489 1489 1489 1488 1488 1488 1488 1488 1488 1487 1487 1487 1487 1487 1488 1488 1488 1489 1489 1489 1489 1489 1489 1489 1489 1489 1489 1489 1489 1488 1488 1488 1488 1488 1488 1487 1487 1487 1487 1487 1487 1488 1488 1488 1488 1489 1490 1490 1490 1491 1491 1492 1492 1493 1494 1495 1495 1496 1496 1496 1497
1495 1495 1495 1494 1494 1494 1494 1494 1493 1493 1493 1493 1493 1492 1492 1492 1492 1492 1492 1492 1491 1491 1491 1491 1491 1491 1490 1490 1490 1490 1490 1490 1489 1489 1489 1489 1489 1489 1489 1488 1488 1488 1488 1488 1488 1488 1488 1488 1488 1487 1487 1487 1487 1487 1487 1487 1487 1487 1487 1487 1488 1488 1488 1488 1488 1488 1488 1488 1488 1487 1487 1487 1487 1486 1486 1486 1486 1486 1486 1486 1485 1486 1486 1486 1486 1487 1487 1487 1487 1488 1488 1489 1489 1490 1490 1491 1492 1493 1493 1494 1495 1495 1495
1494 1494 1494 1494 1494 1493 1493 1493 1493 1493 1492 1492 1492 1492 1492 1492 1492 1491 1491 1491 1491 1491 1491 1491 1490 1490 1490 1490 1490 1490 1489 1489 1489 1489 1489 1489 1488 1488 1488 1488 1488 1488 1487 1487 1487 1487 1487 1487 1487 1487 1487 1487 1487 1487 1486 1486 1486 1486 1486 1486 1487 1487 1487 1487 1487 1487 1487 1486 1486 1486 1486 1486 1485 1485 1485 1485 1485 1485 1484 1484 1484 1485 1485 1485 1485 1485 1485 1486 1486 1486 1486 1487 1487 1488 1489 1489 1490 1490 1491 1492 1493 1493 1494
1494 1493 1493 1493 1493 1493 1493 1492 1492 1492 1492 1492 1492 1491 1491 1491 1491 1491 1491 1491 1490 1490 1490 1490 1490 1490 1490 1490 1489 1489 1489 1489 1489 1488 1488 1488 1488 1488 1488 1488 1487 1487 1487 1487 1487 1487 1486 1486 1486 1486 1486 1486 1486 1486 1486 1486 1486 1485 1485 1485 1485 1485 1486 1485 1485 1485 1485 1485 1485 1485 1485 1484 1484 1484 1484 1483 1483 1483 1483 1483 1483 1483 1483 1483 1484 1484 1484 1484 1484 1485 1485 1485 1486 1486 1487 1487 1488 1489 1490 1490 1491 1492 1492
1493 1493 1493 1493 1492 1492 1492 1492 1492 1491 1491 1491 1491 1491 1491 1491 1491 1490 1490 1490 1490 1490 1490 1490 1490 1489 1489 1489 1489 1489 1489 1488 1488 1488 1488 1488 1488 1487 1487 1487 1487 1487 1487 1486 1486 1486 1486 1486 1486 1485 1485 1485 1485 1485 1485 1485 1485 1485 1485 1485 1485 1484 1484 1484 1484 1484 1484 1484 1483 1483 1483 1483 1483 1482 1482 1482 1482 1482 1482 1481 1481 1481 1481 1482 1482 1482 1482 1483 1483 1483 1483 1484 1484 1485 1485 1485 1486 1487 1488 1488 1489 1490 1490
1492 1492 1492 1492 1492 1492 1491 1491 1491 1491 1491 1491 1491 1490 1490 1490 1490 1490 1490 1490 1490 1489 1489 1489 1489 1489 1489 1489 1488 1488 1488 1488 1488 1488 1487 1487 1487 1487 1487 1487 1487 1486 1486 1486 1486 1485 1485 1485 1485 1485 1485 1485 1485 1485 1485 1485 1484 1484 1484 1484 1484 1483 1483 1483 1483 1483 1483 1482 1482 1482 1482 1482 1481 1481 1481 1481 1480 1480 1480 1480 1480 1480 1480 1480 1480 1480 1481 1481 1481 1481 1482 1482 1482 1483 1483 1484 1484 1485 1486 1486 1487 1488 1489
1492 1492 1492 1491 1491 1491 1491 1491 1491 1490 1490 1490 1490 1490 1490 1490 1490 1490 1490 1489 1489 1489 1489 1489 1488 1488 1488 1488 1488 1488 1488 1487 1487 1487 1487 1487 1487 1487 1486 1486 1486 1486 1486 1485 1485 1485 1485 1485 1485 1484 1484 1484 1484 1484 1484 1484 1484 1483 1483 1483 1483 1483 1482 1482 1482 1482 1482 1481 1481 1481 1481 1480 1480 1480 1480 1480 1480 1479 1479 1479 1479 1479 1479 1479 1479 1479 1479 1480 1480 1480 1480 1480 1481 1481 1481 1482 1483 1483 1484 1485 1485 1486 1487
1491 1491 1491 1491 1491 1490 1490 1490 1490 1490 1490 1490 1490 1490 1490 1489 1489 1489 1489 1489 1489 1488 1488 1488 1488 1488 1488 1488 1487 1487 1487 1487 1487 1487 1486 1486 1486 1486 1486 1486 1486 1485 1485 1485 1485 1485 1485 1484 1484 1484 1484 1484 1483 1483 1483 1483 1483 1483 1482 1482 1482 1482 1481 1481 1481 1481 1481 1480 1480 1480 1480 1480 1479 1479 1479 1479 1478 1478 1478 1478 1478 1478 1478 1478 1478 1478 1478 1478 1478 1479 1479 1479 1479 1480 1480 1480 1481 1481 1482 1482 1483 1484 1485
1491 1491 1490 1490 1490 1490 1490 1490 1490 1490 1489 1489 1489 1489 1489 1489 1489 1488 1488 1488 1488 1488 1488 1487 1487 1487 1487 1487 1487 1487 1486 1486 1486 1486 1486 1486 1486 1485 1485 1485 1485 1485 1485 1485 1485 1484 1484 1484 1483 1483 1483 1483 1483 1482 1482 1482 1482 1482 1482 1481 1481 1481 1480 1480 1480 1480 1480 1480 1480 1479 1479 1479 1478 1478 1478 1477 1477 1477 1477 1477 1477 1477 1476 1476 1476 1476 1477 1477 1477 1477 1477 1477 1478 1478 1478 1479 1479 1480 1480 1480 1481 1482 1483
1490 1490 1490 1490 1490 1490 1489 1489 1489 1489 1489 1489 1488 1488 1488 1488 1488 1488 1488 1487 1487 1487 1487 1487 1487 1487 1486 1486 1486 1486 1486 1486 1486 1485 1485 1485 1485 1485 1485 1485 1485 1485 1484 1484 1484 1484 1483 1483 1483 1483 1482 1482 1482 1482 1481 1481 1481 1481 1481 1480 1480 1480 1480 1480 1479 1479 1479 1479 1478 1478 1478 1477 1477 1477 1476 1476 1476 1476 1476 1476 1475 1475 1475 1475 1475 1475 1475 1475 1475 1475 1476 1476 1476 1476 1477 1477 1477 1478 1478 1478 1479 1480 1481
1490 1490 1489 1489 1489 1489 1489 1489 1489 1488 1488 1488 1488 1488 1487 1487 1487 1487 1487 1487 1486 1486 1486 1486 1486 1486 1486 1486 1485 1485 1485 1485 1485 1485 1485 1485 1485 1485 1485 1484 1484 1484 1484 1483 1483 1483 1482 1482 1482 1482 1482 1481 1481 1481 1480 1480 1480 1480 1480 1480 1479 1479 1479 1478 1478 1478 1478 1478 1477 1477 1477 1476 1476 1476 1475 1475 1475 1475 1475 1475 1475 1474 1474 1474 1474 1474 1474 1474 1474 1474 1474 1474 1475 1475 1475 1475 1475 1476 1476 1476 1477 1478 1478
1489 1489 1489 1489 1488 1488 1488 1488 1488 1488 1488 1487 1487 1487 1487 1486 1486 1486 1486 1486 1486 1485 1485 1485 1485 1485 1485 1485 1485 1485 1485 1485 1485 1484 1484 1484 1484 1484 1484 1484 1483 1483 1483 1482 1482 1482 1482 1481 1481 1480 1480 1480 1480 1480 1480 1480 1479 1479 1479 1479 1478 1478 1478 1477 1477 1477 1477 1476 1476 1476 1476 1475 1475 1475 1475 1475 1474 1474 1474 1474 1473 1473 1473 1473 1473 1473 1473 1473 1473 1473 1473 1473 1473 1474 1474 1474 1474 1474 1474 1475 1475 1476 1476
1488 1488 1488 1488 1488 1488 1488 1487 1487 1487 1487 1487 1486 1486 1486 1486 1486 1485 1485 1485 1485 1485 1485 1485 1485 1485 1484 1484 1484 1484 1484 1484 1484 1484 1484 1483 1483 1483 1483 1482 1482 1482 1482 1481 1481 1481 1480 1480 1480 1479 1479 1479 1479 1479 1478 1478 1478 1478 1478 1478 1477 1477 1477 1476 1476 1476 1476 1475 1475 1475 1475 1475 1474 1474 1474 1473 1473 1473 1473 1472 1472 1472 1472 1472 1472 1471 1471 1471 1471 1471 1471 1471 1472 1472 1472 1472 1473 1473 1473 1473 1473 1474 1474
1488 1488 1488 1487 1487 1487 1487 1487 1487 1486 1486 1486 1486 1485 1485 1485 1485 1485 1485 1484 1484 1484 1484 1484 1484 1484 1484 1483 1483 1483 1483 1483 1483 1483 1483 1482 1482 1482 1481 1481 1481 1480 1480 1480 1480 1479 1479 1479 1478 1478 1478 1478 1477 1477 1477 1477 1477 1477 1477 1477 1476 1476 1476 1475 1475 1475 1475 1475 1474 1474 1474 1474 1473 1473 1473 1472 1472 1472 1471 1471 1471 1471 1470 1470 1470 1470 1470 1470 1470 1470 1470 1470 1470 1470 1470 1470 1471 1471 1471 1472 1472 1472 1472
1487 1487 1487 1487 1487 1486 1486 1486 1486 1486 1486 1485 1485 1485 1485 1485 1484 1484 1484 1484 1483 1483 1483 1483 1483 1483 1483 1483 1483 1482 1482 1482 1482 1482 1482 1481 1481 1481 1480 1480 1480 1480 1479 1479 1478 1478 1478 1477 1477 1477 1477 1476 1476 1476 1476 1475 1475 1475 1475 1475 1475 1475 1475 1475 1474 1474 1474 1474 1473 1473 1473 1472 1472 1472 1472 1471 1471 1471 1470 1470 1470 1470 1469 1469 1469 1469 1469 1469 1468 1468 1468 1468 1468 1468 1468 1468 1469 1469 1470 1470 1470 1470 1470
1486 1486 1486 1486 1486 1486 1486 1486 1485 1485 1485 1485 1485 1484 1484 1484 1484 1484 1483 1483 1483 1483 1482 1482 1482 1482 1482 1482 1482 1482 1481 1481 1481 1481 1481 1480 1480 1480 1480 1480 1479 1479 1478 1478 1478 1477 1477 1476 1476 1476 1476 1475 1475 1475 1475 1475 1474 1474 1474 1474 1474 1474 1474 1474 1473 1473 1473 1472 1472 1472 1472 1471 1471 1471 1470 1470 1470 1470 1469 1469 1469 1468 1468 1468 1468 1467 1467 1467 1467 1467 1467 1467 1467 1467 1467 1467 1467 1467 1468 1468 1468 1469 1469
1485 1485 1485 1485 1485 1485 1485 1485 1485 1485 1485 1484 1484 1484 1484 1483 1483 1483 1483 1482 1482 1482 1482 1482 1482 1481 1481 1481 1481 1481 1480 1480 1480 1480 1480 1480 1480 1480 1479 1479 1479 1478 1478 1477 1477 1477 1476 1476 1475 1475 1475 1475 1474 1474 1474 1474 1473 1473 1473 1473 1473 1473 1473 1472 1472 1472 1472 1471 1471 1471 1470 1470 1470 1470 1470 1469 1469 1468 1468 1468 1468 1467 1467 1467 1467 1466 1466 1466 1466 1465 1465 1465 1465 1465 1465 1465 1465 1465 1465 1466 1466 1467 1467
1485 1485 1484 1484 1484 1484 1484 1484 1484 1484 1484 1484 1483 1483 1483 1483 1482 1482 1482 1482 1481 1481 1481 1481 1481 1481 1480 1480 1480 1480 1480 1480 1480 1480 1480 1479 1479 1479 1479 1478 1478 1477 1477 1477 1476 1476 1476 1475 1475 1474 1474 1474 1473 1473 1473 1473 1473 1472 1472 1472 1472 1472 1471 1471 1471 1471 1471 1470 1470 1470 1470 1469 1469 1469 1468 1468 1467 1467 1467 1466 1466 1466 1466 1465 1465 1465 1465 1465 1464 1464 1464 1464 1464 1464 1464 1464 1463 1463 1464 1464 1464 1465 1465
1484 1484 1484 1484 1484 1484 1484 1483 1483 1483 1483 1483 1483 1483 1482 1482 1482 1482 1481 1481 1481 1481 1480 1480 1480 1480 1480 1480 1480 1479 1479 1479 1479 1479 1479 1479 1479 1478 1478 1478 1477 1477 1476 1476 1475 1475 1475 1475 1474 1474 1473 1473 1472 1472 1472 1472 1471 1471 1471 1471 1471 1471 1470 1470 1470 1470 1470 1470 1469 1469 1468 1468 1468 1467 1467 1466 1466 1466 1465 1465 1465 1465 1464 1464 1464 1464 1463 1463 1463 1463 1463 1463 1462 1462 1462 1462 1462 1462 1462 1462 1462 1463 1463
1483 1483 1483 1483 1483 1483 1483 1483 1483 1483 1482 1482 1482 1482 1482 1481 1481 1481 1481 1481 1480 1480 1480 1480 1480 1479 1479 1479 1479 1479 1479 1479 1479 1478 1478 1478 1478 1477 1477 1476 1476 1475 1475 1475 1474 1474 1474 1474 1473 1473 1472 1472 1471 1471 1471 1471 1470 1470 1470 1470 1470 1470 1470 1470 1469 1469 1469 1469 1468 1468 1467 1467 1467 1466 1466 1465 1465 1465 1464 1464 1464 1463 1463 1463 1462 1462 1462 1462 1461 1461 1461 1461 1461 1461 1461 1461 1461 1461 1460 1460 1460 1461 1461
1482 1482 1482 1482 1482 1482 1482 1482 1482 1482 1482 1482 1482 1481 1481 1481 1481 1480 1480 1480 1480 1480 1480 1479 1479 1479 1479 1478 1478 1478 1478 1478 1478 1478 1477 1477 1476 1476 1475 1475 1475 1475 1474 1474 1473 1473 1473 1472 1472 1472 1471 1471 1470 1470 1470 1470 1470 1470 1469 1469 1469 1469 1469 1469 1469 1468 1468 1468 1467 1467 1466 1466 1466 1465 1465 1465 1464 1464 1463 1463 1462 1462 1462 1461 1461 1461 1460 1460 1460 1460 1460 1459 1459 1459 1459 1459 1459 1459 1459 1459 1459 1459 1459
1481 1481 1481 1481 1481 1481 1481 1481 1481 1481 1481 1481 1481 1481 1481 1480 1480 1480 1480 1480 1480 1479 1479 1479 1478 1478 1478 1478 1478 1478 1477 1477 1477 1477 1476 1476 1475 1475 1474 1474 1474 1473 1473 1473 1472 1472 1472 1471 1471 1471 1470 1470 1470 1470 1469 1469 1469 1469 1469 1469 1469 1468 1468 1468 1468 1467 1467 1467 1466 1466 1465 1465 1465 1464 1464 1463 1463 1463 1462 1462 1461 1461 1460 1460 1460 1460 1459 1459 1458 1458 1458 1458 1457 1457 1457 1457 1457 1457 1457 1458 1458 1458 1458
1481 1480 1480 1480 1481 1481 1481 1481 1481 1481 1481 1481 1480 1480 1480 1480 1480 1480 1480 1479 1479 1479 1478 1478 1478 1477 1477 1477 1477 1477 1477 1476 1476 1476 1475 1475 1475 1474 1473 1473 1473 1472 1472 1472 1471 1471 1471 1471 1470 1470 1470 1470 1469 1469 1469 1469 1469 1468 1468 1468 1468 1468 1467 1467 1467 1466 1466 1466 1465 1465 1465 1464 1464 1463 1463 1462 1462 1461 1461 1460 1460 1460 1460 1459 1459 1458 1458 1457 1457 1457 1456 1456 1456 1455 1455 1455 1455 1455 1455 1455 1456 1456 1456
1480 1480 1480 1480 1480 1480 1480 1480 1480 1480 1480 1480 1480 1480 1480 1480 1480 1479 1479 1479 1478 1478 1478 1477 1477 1477 1477 1477 1476 1476 1476 1476 1475 1475 1475 1474 1474 1473 1473 1472 1472 1471 1471 1471 1470 1470 1470 1470 1470 1470 1469 1469 1469 1468 1468 1468 1468 1468 1468 1467 1467 1467 1466 1466 1466 1465 1465 1465 1465 1464 1464 1464 1463 1463 1462 1462 1461 1460 1460 1460 1459 1459 1458 1458 1457 1457 1457 1456 1456 1455 1455 1455 1455 1454 1454 1454 1454 1454 1454 1454 1454 1454 1454
1479 1479 1479 1479 1479 1479 1479 1480 1480 1480 1480 1480 1480 1480 1479 1479 1479 1479 1478 1478 1478 1478 1477 1477 1477 1477 1476 1476 1476 1475 1475 1475 1475 1474 1474 1474 1473 1473 1472 1472 1471 1471 1470 1470 1470 1470 1469 1469 1469 1468 1468 1468 1468 1467 1467 1467 1467 1467 1467 1466 1466 1466 1465 1465 1465 1465 1464 1464 1464 1463 1463 1462 1462 1461 1461 1461 1460 1460 1459 1459 1458 1458 1457 1457 1456 1456 1455 1455 1455 1454 1454 1454 1453 1453 1453 1453 1452 1452 1452 1452 1452 1452 1452
1478 1478 1479 1479 1479 1479 1479 1479 1479 1479 1479 1479 1479 1479 1479 1479 1479 1478 1478 1478 1477 1477 1477 1477 1476 1476 1476 1475 1475 1475 1475 1474 1474 1474 1473 1473 1472 1472 1471 1471 1470 1470 1470 1470 1469 1469 1468 1468 1467 1467 1467 1467 1466 1466 1466 1466 1466 1466 1465 1465 1465 1465 1464 1464 1464 1464 1463 1463 1462 1462 1462 1461 1461 1460 1460 1460 1459 1459 1458 1458 1457 1456 1456 1455 1455 1455 1454 1454 1453 1453 1453 1452 1452 1452 1451 1451 1451 1451 1450 1450 1450 1450 1450
1477 1478 1478 1478 1478 1478 1478 1478 1478 1478 1478 1478 1478 1478 1478 1478 1478 1478 1478 1477 1477 1477 1476 1476 1476 1475 1475 1475 1475 1474 1474 1474 1473 1473 1473 1472 1472 1471 1471 1470 1470 1470 1469 1469 1468 1468 1467 1467 1466 1466 1466 1466 1465 1465 1465 1465 1465 1465 1464 1464 1464 1464 1463 1463 1463 1463 1462 1462 1461 1461 1460 1460 1460 1459 1459 1458 1458 1457 1457 1456 1456 1455 1455 1454 1454 1453 1453 1452 1452 1451 1451 1451 1450 1450 1450 1450 1450 1449 1449 1449 1449 1449 1449
1477 1477 1477 1477 1477 1477 1477 1478 1478 1478 1478 1478 1478 1478 1478 1478 1477 1477 1477 1477 1476 1476 1476 1475 1475 1475 1475 1474 1474 1474 1473 1473 1473 1472 1472 1471 1471 1470 1470 1470 1469 1469 1468 1468 1468 1467 1467 1466 1466 1465 1465 1465 1465 1464 1464 1464 1464 1464 1463 1463 1463 1463 1462 1462 1462 1462 1461 1461 1460 1460 1460 1459 1459 1458 1458 1457 1456 1456 1455 1455 1454 1454 1453 1453 1452 1452 1451 1451 1450 1450 1450 1449 1449 1449 1448 1448 1448 1448 1447 1447 1447 1447 1447
1476 1476 1476 1476 1476 1476 1477 1477 1477 1477 1477 1477 1477 1477 1477 1477 1477 1477 1476 1476 1476 1475 1475 1475 1474 1474 1474 1473 1473 1473 1473 1472 1472 1471 1471 1470 1470 1470 1469 1469 1469 1468 1468 1467 1467 1466 1466 1465 1465 1465 1465 1464 1464 1464 1464 1463 1463 1463 1463 1462 1462 1462 1462 1461 1461 1461 1460 1460 1460 1459 1459 1458 1458 1457 1457 1456 1455 1455 1454 1453 1453 1452 1452 1451 1451 1450 1450 1449 1449 1448 1448 1448 1447 1447 1447 1446 1446 1446 1446 1445 1445 1445 1445
1475 1475 1475 1475 1475 1476 1476 1476 1476 1476 1476 1476 1476 1476 1476 1476 1476 1476 1476 1476 1475 1475 1475 1474 1474 1473 1473 1472 1472 1472 1472 1471 1471 1470 1470 1470 1469 1469 1469 1468 1468 1468 1467 1467 1466 1466 1465 1465 1465 1465 1464 1464 1464 1464 1463 1463 1463 1462 1462 1462 1462 1461 1461 1461 1460 1460 1460 1459 1459 1458 1458 1457 1457 1456 1456 1455 1454 1454 1453 1452 1451 1451 1450 1450 1449 1449 1448 1448 1447 1447 1446 1446 1446 1445 1445 1445 1445 1444 1444 1444 1444 1444 1443
1475 1475 1475 1475 1475 1475 1475 1475 1475 1475 1475 1475 1475 1475 1475 1475 1475 1475 1475 1475 1475 1474 1474 1473 1473 1473 1472 1472 1471 1471 1470 1470 1470 1470 1469 1469 1469 1469 1468 1468 1468 1467 1467 1466 1466 1465 1465 1465 1465 1464 1464 1464 1464 1463 1463 1463 1463 1462 1462 1461 1461 1461 1460 1460 1460 1459 1459 1458 1458 1457 1457 1456 1456 1455 1455 1454 1453 1452 1452 1451 1450 1450 1449 1448 1448 1447 1447 1446 1445 1445 1445 1444 1444 1444 1443 1443 1443 1443 1442 1442 1442 1442 1442
1474 1474 1474 1474 1474 1474 1474 1474 1474 1475 1475 1475 1475 1475 1475 1475 1475 1475 1475 1475 1474 1474 1473 1473 1472 1472 1471 1471 1470 1470 1470 1469 1469 1469 1469 1468 1468 1468 1468 1467 1467 1466 1466 1466 1465 1465 1465 1464 1464 1464 1464 1464 1463 1463 1463 1463 1462 1462 1461 1461 1461 1460 1460 1459 1459 1459 1458 1458 1457 1456 1456 1455 1455 1454 1454 1453 1452 1451 1451 1450 1449 1448 1448 1447 1446 1445 1445 1444 1444 1443 1443 1442 1442 1442 1441 1441 1441 1441 1440 1440 1440 1440 1440
1473 1473 1473 1473 1473 1473 1473 1473 1473 1474 1474 1474 1474 1474 1474 1474 1474 1474 1474 1474 1473 1473 1472 1472 1471 1471 1470 1470 1470 1469 1469 1468 1468 1468 1468 1467 1467 1467 1467 1467 1466 1466 1465 1465 1465 1464 1464 1464 1464 1464 1463 1463 1463 1463 1463 1462 1462 1461 1461 1460 1460 1460 1459 1459 1458 1458 1457 1457 1456 1456 1455 1455 1454 1453 1453 1452 1451 1450 1450 1449 1448 1447 1446 1445 1445 1444 1443 1443 1442 1442 1441 1440 1440 1440 1440 1439 1439 1439 1439 1439 1438 1438 1438
1472 1472 1472 1472 1472 1472 1472 1472 1473 1473 1473 1473 1473 1473 1473 1473 1473 1473 1473 1473 1472 1472 1471 1471 1471 1470 1470 1470 1469 1468 1468 1467 1467 1467 1467 1467 1466 1466 1466 1466 1466 1465 1465 1465 1464 1464 1464 1463 1463 1463 1463 1463 1463 1462 1462 1462 1461 1461 1460 1460 1460 1459 1459 1458 1458 1457 1457 1456 1456 1455 1455 1454 1453 1452 1452 1451 1450 1450 1449 1448 1447 1446 1445 1445 1444 1443 1442 1441 1441 1440 1440 1439 1439 1438 1438 1437 1437 1437 1437 1437 1436 1436 1436
1471 1471 1471 1472 1472 1472 1472 1472 1472 1472 1472 1472 1472 1472 1472 1472 1472 1472 1472 1472 1471 1471 1471 1470 1470 1470 1469 1469 1468 1468 1467 1467 1466 1466 1466 1466 1465 1465 1465 1465 1465 1465 1465 1464 1464 1463 1463 1463 1463 1463 1463 1462 1462 1462 1462 1461 1461 1460 1460 1460 1459 1459 1458 1458 1457 1457 1456 1456 1455 1455 1454 1453 1452 1452 1451 1450 1450 1449 1448 1447 1446 1445 1445 1444 1443 1442 1441 1440 1439 1439 1438 1437 1437 1436 1436 1435 1435 1435 1435 1435 1435 1435 1434
1471 1471 1471 1471 1471 1471 1471 1471 1471 1471 1471 1471 1471 1471 1471 1472 1472 1471 1471 1471 1471 1470 1470 1470 1470 1469 1468 1468 1468 1467 1466 1466 1466 1465 1465 1465 1465 1465 1465 1465 1465 1464 1464 1464 1463 1463 1462 1462 1462 1462 1462 1462 1462 1461 1461 1461 1461 1460 1460 1459 1459 1458 1458 1457 1457 1456 1455 1455 1455 1454 1453 1452 1451 1451 1450 1450 1449 1448 1447 1446 1445 1445 1444 1443 1442 1441 1440 1439 1438 1437 1436 1436 1435 1435 1434 1434 1433 1433 1433 1432 1432 1432 1432
1470 1470 1470 1470 1470 1470 1470 1470 1470 1470 1471 1470 1470 1470 1471 1471 1471 1471 1470 1470 1470 1470 1470 1470 1469 1468 1468 1467 1467 1466 1466 1465 1465 1465 1465 1465 1464 1464 1464 1464 1464 1464 1463 1463 1462 1462 1462 1462 1462 1461 1461 1461 1461 1461 1461 1461 1460 1460 1459 1459 1458 1458 1457 1456 1456 1455 1455 1454 1453 1453 1452 1451 1451 1450 1449 1449 1448 1447 1446 1445 1445 1444 1443 1442 1441 1440 1439 1438 1437 1436 1435 1434 1434 1433 1432 1432 1431 1431 1430 1430 1430 1430 1430
1470 1470 1470 1470 1470 1470 1470 1470 1470 1470 1470 1470 1470 1470 1470 1470 1470 1470 1470 1470 1470 1469 1469 1469 1469 1468 1467 1467 1466 1466 1465 1465 1465 1465 1464 1464 1464 1463 1463 1463 1463 1463 1462 1462 1461 1461 1461 1461 1461 1461 1461 1461 1461 1460 1460 1460 1460 1459 1459 1458 1457 1457 1456 1455 1455 1454 1454 1453 1452 1451 1451 1450 1450 1449 1448 1447 1447 1446 1445 1445 1444 1443 1442 1441 1440 1439 1438 1437 1436 1435 1434 1433 1432 1431 1431 1430 1430 1429 1429 1428 1428 1428 1428
1469 1469 1469 1469 1469 1470 1470 1469 1469 1469 1469 1469 1469 1470 1470 1470 1470 1469 1469 1469 1469 1469 1469 1468 1468 1467 1467 1466 1466 1465 1465 1465 1464 1464 1464 1463 1463 1463 1463 1462 1462 1462 1461 1461 1461 1460 1460 1460 1460 1460 1460 1460 1460 1460 1460 1460 1459 1459 1458 1457 1457 1456 1455 1455 1454 1453 1453 1452 1451 1450 1450 1449 1448 1447 1447 1446 1445 1445 1444 1443 1442 1441 1440 1440 1439 1438 1437 1436 1435 1434 1433 1432 1431 1430 1429 1428 1428 1427 1427 1426 1425 1425 1425
1468 1468 1468 1469 1469 1469 1469 1468 1468 1468 1468 1469 1469 1469 1469 1469 1469 1469 1468 1468 1468 1468 1468 1468 1467 1467 1466 1466 1465 1465 1465 1464 1463 1463 1463 1462 1462 1462 1462 1462 1461 1461 1461 1460 1460 1460 1460 1460 1460 1460 1460 1460 1460 1460 1460 1459 1459 1458 1457 1457 1456 1455 1455 1454 1453 1452 1452 1451 1450 1449 1448 1448 1447 1446 1445 1445 1444 1443 1442 1441 1440 1440 1439 1438 1437 1436 1435 1434 1433 1432 1431 1430 1430 1429 1428 1427 1426 1425 1425 1424 1424 1423 1423
1468 1468 1468 1468 1468 1468 1467 1468 1468 1468 1468 1468 1468 1468 1468 1468 1468 1468 1468 1468 1468 1467 1467 1467 1467 1466 1466 1465 1465 1464 1464 1463 1463 1462 1462 1461 1461 1461 1461 1461 1461 1460 1460 1459 1459 1459 1459 1459 1459 1459 1459 1459 1459 1459 1459 1459 1458 1457 1457 1456 1455 1455 1454 1453 1452 1452 1451 1450 1450 1449 1447 1447 1446 1445 1444 1443 1442 1441 1440 1440 1439 1438 1437 1436 1435 1434 1433 1433 1432 1431 1430 1429 1428 1427 1426 1425 1425 1424 1423 1423 1422 1422 1421
1468 1468 1468 1467 1467 1467 1467 1467 1467 1467 1467 1468 1468 1467 1467 1467 1467 1467 1467 1467 1467 1467 1467 1466 1466 1465 1465 1465 1465 1464 1463 1463 1462 1461 1461 1461 1460 1460 1460 1460 1460 1460 1459 1459 1458 1458 1458 1459 1459 1459 1459 1459 1459 1458 1458 1458 1457 1457 1456 1455 1454 1454 1453 1452 1452 1451 1450 1450 1449 1448 1447 1446 1445 1444 1443 1442 1441 1441 1440 1439 1438 1437 1436 1435 1434 1433 1432 1431 1430 1429 1428 1427 1427 1426 1425 1424 1423 1422 1422 1421 1420 1420 1420
1467 1467 1466 1466 1466 1466 1466 1466 1466 1466 1467 1467 1467 1467 1466 1467 1467 1467 1467 1467 1466 1466 1466 1466 1465 1465 1465 1464 1464 1463 1463 1462 1462 1461 1460 1460 1460 1460 1460 1460 1460 1459 1458 1458 1457 1458 1458 1458 1458 1458 1458 1458 1458 1458 1458 1457 1457 1456 1455 1454 1454 1453 1452 1452 1451 1450 1450 1449 1448 1447 1446 1445 1445 1444 1443 1442 1441 1440 1440 1438 1437 1436 1435 1434 1433 1431 1430 1429 1428 1427 1426 1425 1425 1424 1423 1422 1421 1420 1420 1419 1418 1418 1417
1465 1465 1465 1465 1465 1465 1466 1466 1466 1466 1466 1466 1466 1466 1466 1466 1466 1466 1466 1466 1466 1466 1466 1465 1465 1464 1464 1463 1463 1463 1462 1462 1461 1461 1460 1460 1459 1458 1459 1459 1459 1458 1457 1457 1457 1457 1457 1457 1457 1458 1458 1458 1457 1457 1457 1457 1456 1455 1454 1453 1453 1452 1452 1451 1450 1450 1449 1449 1448 1447 1446 1445 1444 1444 1443 1442 1441 1440 1440 1438 1437 1436 1434 1433 1432 1430 1429 1428 1427 1425 1425 1423 1422 1422 1421 1420 1419 1419 1418 1417 1416 1416 1415
1465 1465 1465 1465 1465 1465 1465 1465 1465 1465 1465 1466 1466 1465 1465 1466 1466 1466 1466 1466 1466 1466 1465 1465 1464 1464 1463 1463 1462 1462 1462 1461 1461 1460 1460 1459 1458 1457 1457 1457 1457 1457 1457 1456 1456 1456 1457 1457 1457 1457 1457 1457 1457 1457 1456 1456 1455 1454 1453 1452 1452 1452 1451 1450 1450 1449 1449 1448 1447 1446 1445 1445 1445 1444 1443 1442 1441 1440 1439 1438 1436 1435 1434 1432 1431 1430 1428 1427 1426 1425 1423 1422 1421 1420 1419 1418 1418 1417 1416 1415 1415 1414 1414
1464 1464 1465 1464 1464 1465 1465 1465 1465 1465 1465 1465 1465 1465 1465 1465 1465 1465 1465 1465 1465 1465 1464 1464 1464 1463 1463 1462 1462 1461 1461 1461 1460 1460 1459 1459 1458 1458 1457 1456 1455 1456 1456 1456 1456 1456 1456 1456 1456 1456 1456 1457 1456 1456 1456 1455 1454 1453 1452 1452 1452 1451 1450 1450 1449 1449 1448 1447 1446 1446 1445 1445 1444 1444 1443 1442 1441 1440 1439 1437 1436 1434 1433 1431 1430 1429 1427 1426 1425 1424 1422 1421 1420 1419 1418 1417 1416 1415 1415 1414 1413 1412 1411
1464 1464 1464 1464 1464 1464 1464 1464 1465 1465 1465 1465 1465 1465 1465 1465 1465 1465 1465 1465 1465 1464 1464 1463 1463 1462 1462 1462 1461 1461 1461 1461 1460 1460 1459 1459 1458 1458 1457 1456 1455 1455 1455 1455 1456 1456 1456 1456 1456 1456 1456 1456 1456 1455 1455 1454 1453 1452 1452 1452 1451 1450 1450 1449 1449 1448 1447 1447 1446 1445 1445 1444 1444 1443 1442 1441 1440 1440 1438 1436 1435 1433 1432 1430 1429 1427 1426 1425 1424 1423 1421 1420 1419 1418 1417 1416 1415 1414 1413 1412 1411 1410 1410
1463 1463 1463 1463 1463 1463 1464 1464 1464 1464 1464 1464 1464 1464 1464 1464 1464 1464 1464 1464 1464 1464 1463 1463 1462 1462 1461 1461 1461 1460 1460 1460 1460 1460 1459 1459 1458 1457 1457 1456 1456 1456 1456 1456 1456 1456 1456 1456 1456 1456 1456 1456 1455 1455 1454 1453 1453 1452 1451 1451 1450 1450 1449 1448 1448 1447 1447 1446 1445 1445 1444 1443 1443 1442 1442 1441 1440 1439 1437 1435 1434 1432 1430 1429 1427 1426 1425 1424 1422 1421 1420 1419 1418 1417 1415 1414 1413 1412 1411 1410 1409 1408 1407
1462 1462 1462 1463 1463 1463 1463 1464 1464 1463 1463 1463 1464 1463 1464 1464 1464 1464 1464 1463 1463 1463 1463 1462 1462 1461 1461 1460 1460 1460 1460 1460 1460 1459 1459 1459 1458 1458 1457 1457 1457 1456 1456 1457 1457 1457 1456 1455 1455 1455 1455 1455 1454 1454 1453 1453 1452 1451 1451 1450 1449 1449 1448 1447 1447 1446 1446 1445 1444 1444 1443 1443 1442 1442 1441 1440 1439 1438 1436 1435 1433 1431 1429 1427 1426 1425 1423 1422 1421 1420 1418 1417 1416 1415 1414 1413 1411 1410 1409 1408 1407 1406 1405
1462 1462 1462 1462 1462 1462 1463 1463 1463 1463 1463 1463 1463 1463 1463 1463 1463 1463 1463 1463 1463 1462 1462 1461 1461 1461 1460 1460 1460 1459 1459 1459 1459 1459 1459 1458 1458 1458 1458 1457 1456 1456 1456 1457 1457 1457 1456 1454 1453 1452 1453 1453 1453 1452 1452 1452 1451 1450 1450 1449 1448 1448 1447 1446 1446 1445 1445 1444 1443 1443 1442 1442 1442 1441 1440 1440 1438 1437 1435 1433 1431 1430 1428 1426 1425 1423 1422 1420 1419 1418 1416 1415 1414 1413 1412 1411 1410 1409 1408 1407 1406 1405 1404
1461 1461 1461 1461 1462 1462 1462 1462 1462 1462 1462 1463 1463 1463 1463 1463 1463 1463 1462 1462 1462 1462 1461 1461 1461 1460 1460 1460 1459 1459 1459 1459 1459 1459 1458 1458 1458 1458 1458 1458 1458 1457 1457 1457 1457 1456 1456 1455 1452 1451 1451 1452 1452 1451 1451 1451 1450 1450 1449 1448 1447 1447 1446 1446 1445 1444 1444 1443 1442 1442 1442 1441 1441 1440 1440 1439 1437 1436 1434 1432 1430 1428 1426 1425 1423 1422 1420 1419 1418 1416 1415 1413 1412 1411 1410 1409 1408 1407 1406 1405 1404 1403 1402
1460 1460 1461 1461 1461 1461 1462 1462 1462 1462 1462 1462 1462 1462 1462 1462 1462 1462 1462 1462 1461 1461 1461 1460 1460 1460 1460 1459 1459 1459 1459 1458 1458 1458 1458 1458 1458 1458 1458 1458 1458 1459 1459 1458 1458 1456 1455 1455 1454 1452 1450 1450 1450 1450 1450 1450 1450 1449 1448 1447 1447 1446 1445 1445 1444 1443 1443 1442 1441 1441 1441 1441 1440 1440 1439 1438 1436 1435 1433 1431 1429 1427 1425 1423 1422 1420 1419 1417 1416 1415 1413 1412 1410 1409 1408 1407 1406 1405 1404 1403 1402 1402 1401
1460 1460 1460 1460 1461 1461 1461 1461 1461 1461 1461 1462 1462 1462 1462 1462 1461 1461 1461 1461 1461 1460 1460 1460 1460 1460 1460 1459 1459 1459 1458 1458 1458 1458 1458 1458 1458 1458 1458 1457 1458 1458 1458 1458 1458 1457 1455 1455 1455 1454 1451 1449 1449 1450 1449 1449 1448 1448 1447 1447 1446 1445 1445 1444 1443 1443 1442 1441 1441 1440 1440 1440 1440 1439 1438 1437 1435 1434 1431 1430 1427 1425 1424 1422 1420 1419 1417 1416 1415 1413 1412 1410 1409 1408 1406 1405 1404 1403 1402 1401 1400 1399 1399
1459 1460 1460 1460 1460 1460 1461 1461 1460 1460 1461 1461 1461 1461 1461 1461 1461 1461 1461 1460 1460 1460 1460 1460 1460 1460 1460 1459 1459 1458 1458 1458 1457 1457 1457 1457 1457 1457 1457 1457 1457 1457 1457 1457 1457 1456 1456 1455 1455 1454 1453 1450 1448 1447 1448 1448 1447 1446 1446 1446 1445 1445 1444 1443 1442 1442 1441 1441 1440 1440 1439 1440 1439 1438 1437 1436 1434 1432 1430 1428 1426 1424 1422 1420 1419 1417 1416 1415 1413 1411 1410 1409 1407 1406 1405 1404 1402 1401 1400 1399 1398 1397 1396
1459 1459 1459 1459 1460 1460 1460 1460 1460 1460 1460 1460 1461 1461 1461 1460 1460 1460 1460 1460 1460 1460 1460 1459 1459 1459 1459 1459 1458 1458 1458 1457 1457 1457 1457 1457 1457 1457 1457 1457 1457 1457 1457 1457 1456 1456 1456 1456 1455 1455 1455 1454 1450 1447 1445 1446 1446 1446 1445 1445 1445 1444 1443 1442 1442 1441 1441 1440 1440 1439 1439 1439 1438 1437 1436 1435 1433 1431 1429 1427 1425 1423 1421 1419 1418 1416 1415 1413 1411 1410 1409 1407 1406 1404 1403 1402 1400 1400 1399 1397 1396 1395 1394
1458 1458 1458 1459 1459 1460 1460 1460 1460 1460 1460 1460 1460 1460 1460 1460 1460 1460 1460 1460 1459 1459 1459 1459 1459 1459 1459 1458 1458 1458 1457 1457 1457 1457 1457 1457 1457 1457 1457 1457 1456 1456 1456 1456 1456 1455 1455 1455 1455 1455 1455 1454 1453 1450 1446 1444 1444 1444 1444 1444 1444 1443 1443 1442 1441 1441 1440 1440 1439 1438 1438 1438 1437 1436 1435 1434 1432 1430 1428 1425 1424 1422 1420 1418 1417 1415 1414 1412 1410 1408 1407 1405 1404 1403 1401 1400 1399 1398 1396 1395 1395 1393 1392